Weather History for LIRN - November, 2011

Change the Weather History Date:

Saturday, November 26, 2011

  Actual Average Record
Temperature  
Mean Temperature 56 °F -  
Max Temperature 65 °F 57 °F 71 °F (2002)
Min Temperature 46 °F 42 °F 35 °F (2004)
Degree Days  
Heating Degree Days 10    
Growing Degree Days 6 (Base 50)    
Moisture  
Dew Point 46 °F    
Average Humidity 70    
Maximum Humidity 87    
Minimum Humidity 41    
Precipitation  
Precipitation 0.00 in 0.17 in - ()
Sea Level Pressure  
Sea Level Pressure 30.31 in    
Wind  
Wind Speed 4 mph ()    
Max Wind Speed 9 mph    
Max Gust Speed -    
Visibility 6.1 miles    
Events      
Averages and records for this station are not official NWS values.
T = Trace of Precipitation, MM = Missing Value Source: Averaged Metar Reports

Daily Weather History Graph

Daily Weather History Graph

Search for Another Location

Airport or City:

Trip Planner

Search our weather history database for the weather conditions in past years. The results will help you decide how hot, cold, wet, or windy it might be!

Date:

Astronomy

Nov. 26, 2011 Rise Set
Actual Time 7:02 AM CET 4:37 PM CET
Civil Twilight 6:31 AM CET 5:07 PM CET
Nautical Twilight 5:58 AM CET 5:41 PM CET
Astronomical Twilight 5:25 AM CET 6:14 PM CET
Moon 8:16 AM CET (11/26) 5:49 PM CET (11/26)
Length of Visible Light 10h 35m
Length of Day
9h 35m
New Moon, 2% of the Moon is Illuminated
Nov 26
New Moon
Dec 2
First Quarter
Dec 10
Full
Dec 18
Last Quarter
Dec 24
New

Hourly Weather History & Observations

Time (CET) Temp. Windchill Dew Point Humidity Pressure Visibility Wind Dir Wind Speed Gust Speed Precip Events Conditions
12:20 AM 55.4 °F - 48.2 °F 77% 30.30 in 6.2 mi NNW 4.6 mph - N/A   Partly Cloudy
12:50 AM 55.4 °F - 48.2 °F 77% 30.30 in 6.2 mi NNW 5.8 mph - N/A   Partly Cloudy
1:00 AM 55 °F - 48 °F 70%  in 10 mi NNW 5.8 mph - -  
1:20 AM 53.6 °F - 48.2 °F 82% 30.30 in 6.2 mi North 5.8 mph - N/A   Partly Cloudy
1:50 AM 53.6 °F - 46.4 °F 77% 30.27 in 6.2 mi North 5.8 mph - N/A   Partly Cloudy
2:20 AM 53.6 °F - 46.4 °F 77% 30.27 in 6.2 mi North 4.6 mph - N/A   Partly Cloudy
2:50 AM 50.0 °F - 44.6 °F 82% 30.27 in 6.2 mi WNW 3.5 mph - N/A   Partly Cloudy
3:50 AM 51.8 °F - 46.4 °F 82% 30.27 in 6.2 mi NW 5.8 mph - N/A   Partly Cloudy
4:00 AM 51 °F - 46 °F 78%  in 6 mi NW 5.8 mph - -  
4:20 AM 51.8 °F - 46.4 °F 82% 30.27 in 6.2 mi NNW 5.8 mph - N/A   Partly Cloudy
4:50 AM 51.8 °F - 46.4 °F 82% 30.30 in 6.2 mi NNW 5.8 mph - N/A   Partly Cloudy
5:20 AM 51.8 °F - 46.4 °F 82% 30.30 in 6.2 mi NNW 4.6 mph - N/A   Partly Cloudy
5:50 AM 50.0 °F - 44.6 °F 82% 30.27 in 6.2 mi North 3.5 mph - N/A   Partly Cloudy
6:20 AM 50.0 °F - 44.6 °F 82% 30.30 in 6.2 mi NNW 3.5 mph - N/A   Partly Cloudy
6:50 AM 46.4 °F 45.2 °F 42.8 °F 87% 30.30 in - NNW 3.5 mph - N/A   Clear
7:00 AM 47 °F - 43 °F 82%  in 6 mi NNW 3.5 mph - -  
7:20 AM 48.2 °F - 44.6 °F 87% 30.30 in - NNW 4.6 mph - N/A   Clear
7:50 AM 50.0 °F - 46.4 °F 87% 30.30 in - NW 4.6 mph - N/A   Clear
8:20 AM 53.6 °F - 48.2 °F 82% 30.33 in - NNW 4.6 mph - N/A   Clear
8:50 AM 55.4 °F - 48.2 °F 77% 30.33 in - North 6.9 mph - N/A   Clear
9:20 AM 57.2 °F - 48.2 °F 72% 30.33 in - North 5.8 mph - N/A   Clear
9:50 AM 59.0 °F - 48.2 °F 67% 30.33 in - North 3.5 mph - N/A   Clear
10:20 AM 60.8 °F - 48.2 °F 63% 30.33 in - North 3.5 mph - N/A   Clear
10:50 AM 60.8 °F - 48.2 °F 63% 30.33 in - Variable 2.3 mph - N/A   Clear
11:50 AM 64.4 °F - 46.4 °F 52% 30.30 in - Variable 2.3 mph - N/A   Clear
12:20 PM 64.4 °F - 48.2 °F 56% 30.30 in - NNW 3.5 mph - N/A   Clear
12:50 PM 64.4 °F - 46.4 °F 52% 30.30 in - North 5.8 mph - N/A   Clear
1:00 PM 65 °F - 47 °F 41% 30.31 in 22 mi NNE 4.6 mph - -  
1:20 PM 64.4 °F - 46.4 °F 52% 30.30 in - North 3.5 mph - N/A   Clear
1:50 PM 64.4 °F - 46.4 °F 52% 30.30 in - North 5.8 mph - N/A   Clear
2:20 PM 64.4 °F - 44.6 °F 49% 30.27 in 6.2 mi NNW 5.8 mph - N/A   Partly Cloudy
2:50 PM 64.4 °F - 46.4 °F 52% 30.30 in - NNE 9.2 mph - N/A   Clear
3:20 PM 64.4 °F - 46.4 °F 52% 30.27 in - North 8.1 mph - N/A   Clear
3:50 PM 64.4 °F - 46.4 °F 52% 30.27 in - NNE 5.8 mph - N/A   Clear
4:00 PM 63 °F - 47 °F 46% 30.30 in 13 mi North 4.6 mph - -  
4:20 PM 62.6 °F - 48.2 °F 59% 30.30 in - Variable 3.5 mph - N/A   Clear
4:50 PM 60.8 °F - 46.4 °F 59% 30.30 in - North 4.6 mph - N/A   Clear
5:20 PM 59.0 °F - 46.4 °F 63% 30.30 in - North 4.6 mph - N/A   Clear
5:50 PM 57.2 °F - 46.4 °F 67% 30.33 in 5.6 mi NNE 4.6 mph - N/A   Unknown
6:20 PM 55.4 °F - 46.4 °F 72% 30.33 in 5.6 mi Variable 2.3 mph - N/A   Unknown
6:50 PM 53.6 °F - 44.6 °F 72% 30.33 in 5.6 mi North 3.5 mph - N/A   Unknown
7:00 PM 56 °F - 46 °F 60% 30.34 in 6 mi North 3.5 mph - -   Mist
7:20 PM 53.6 °F - 44.6 °F 72% 30.33 in 5.6 mi North 4.6 mph - N/A   Unknown
7:50 PM 55.4 °F - 46.4 °F 72% 30.33 in 5.0 mi North 3.5 mph - N/A   Unknown
8:20 PM 55.4 °F - 46.4 °F 72% 30.33 in 5.0 mi NNE 6.9 mph - N/A   Unknown
8:50 PM 53.6 °F - 44.6 °F 72% 30.33 in 4.3 mi North 2.3 mph - N/A   Unknown
9:20 PM 51.8 °F - 44.6 °F 76% 30.36 in 5.0 mi North 4.6 mph - N/A   Unknown
9:50 PM 50.0 °F - 42.8 °F 76% 30.36 in 5.0 mi NNW 3.5 mph - N/A   Unknown
10:00 PM 52 °F - 45 °F 71% 30.38 in 6 mi North 4.6 mph - -   Mist
10:50 PM 48.2 °F - 41.0 °F 76% 30.36 in 5.0 mi NNW 3.5 mph - N/A   Unknown
11:20 PM 48.2 °F - 42.8 °F 82% 30.36 in 5.0 mi NW 4.6 mph - N/A   Unknown
11:50 PM 51.8 °F - 44.6 °F 76% 30.36 in 5.0 mi North 4.6 mph - N/A   Unknown